Home > Weather > Plano > Past weeks

Flag for USA Past Weather in Plano, Texas, USA — Yesterday and Last 2 Weeks

Now
86 °F

Sunny.


Feels Like: 92 °F
Forecast: 75 / 87 °F
Wind: 8 mph from Southeast

Location: McKinney Municipal Airport

Current Time: Aug 25, 2016 at 8:54:15 PM

Latest Report: Aug 25, 2016 at 7:53 PM


Visibility: 10 mi

Pressure: 29.98 "Hg

Humidity: 63%

Dew Point: 72 °F

Location of PlanoLocation

Past Weather in Plano — Graph

°F

Plano Temperature Yesterday

Maximum temperature yesterday: 91 °F (at 2:53 PM)
Minimum temperature yesterday: 72 °F (at 6:53 AM)
Average temperature yesterday: 83 °F

High & Low Weather Summary for the Past Weeks

 TemperatureHumidityPressure
High103 °F (Aug 12, 2:53 PM)100% (Aug 19, 12:53 AM)30.13 "Hg (Aug 19, 12:53 AM)
Low69 °F (Aug 21, 4:53 AM)31% (Aug 11, 3:53 PM)29.70 "Hg (Aug 12, 4:53 PM)
Average80 °F77%29.97 "Hg
* Reported Aug 10 7:53 PM — Aug 25 7:53 PM, Plano, Weather by CustomWeather, © 2016

Note: Actual official high and low records may vary slightly from our data, if they occured in-between our weather recording intervals... More about our weather records

Advertising

Plano Weather History for the Previous 24 Hours

Scroll right to see more
 ConditionsComfort  
Time TempWeatherWind HumidityBarometerVisibility
7:53 PM
Thu, Aug 25
86 °FSunny.8 mph63%29.98 "Hg10 mi
6:53 PM90 °FSunny.9 mph48%29.96 "Hg10 mi
5:53 PM91 °FSunny.14 mph50%29.95 "Hg10 mi
4:53 PM92 °FSunny.9 mph51%29.96 "Hg10 mi
3:53 PM92 °FPassing clouds.3 mph49%29.98 "Hg10 mi
2:53 PM93 °FSunny.6 mph41%30.01 "Hg10 mi
1:53 PM92 °FSunny.8 mph41%30.04 "Hg10 mi
12:53 PM90 °FSunny.7 mph48%30.06 "Hg10 mi
11:53 AM88 °FSunny.6 mph54%30.09 "Hg10 mi
10:53 AM86 °FSunny.8 mph61%30.09 "Hg10 mi
9:53 AM83 °FSunny.6 mph72%30.09 "Hg10 mi
8:53 AM80 °FSunny.6 mph79%30.08 "Hg10 mi
7:53 AM76 °FClear.No wind91%30.07 "Hg10 mi
6:53 AM74 °FClear.No wind94%30.06 "Hg10 mi
5:53 AM74 °FClear.No wind91%30.04 "Hg10 mi
4:53 AM75 °FClear.6 mph90%30.02 "Hg10 mi
3:53 AM76 °FClear.7 mph88%30.02 "Hg10 mi
2:53 AM77 °FClear.8 mph85%30.02 "Hg10 mi
1:53 AM75 °FClear.8 mph90%30.03 "Hg10 mi
12:53 AM77 °FClear.7 mph85%30.03 "Hg10 mi
11:53 PM
Wed, Aug 24
78 °FClear.9 mph82%30.04 "Hg10 mi
10:53 PM79 °FClear.5 mph82%30.06 "Hg10 mi
9:53 PM81 °FClear.7 mph74%30.04 "Hg10 mi
8:53 PM83 °FSunny.7 mph70%30.02 "Hg10 mi
Weather by CustomWeather, © 2016

See weather overviewHow to use our weather pages